Regional Weather Roundup
Issued by NWS Green Bay, WI

Home | Current Version | Previous Version | Text Only | Print | Product List | Glossary On
Versions: 1 2 3 4 5 6 7 8 9 10 11 12 13 14 15 16 17 18 19 20 21 22 23 24 25 26 27 28 29 30 31 32 33 34 35 36 37 38 39 40 41 42 43 44 45 46 47 48 49 50
000
ASUS43 KGRB 251111
RWRGRB

NORTH-CENTRAL AND NORTHEAST WISCONSIN REGIONAL WEATHER ROUNDUP
NATIONAL WEATHER SERVICE GREEN BAY WI
600 AM CDT MON SEP 25 2017

WIZ005-009-010>012-018-019-251200-
NORTH CENTRAL WISCONSIN

CITY           SKY/WX    TMP DP  RH WIND       PRES   REMARKS
IRONWOOD       CLOUDY    66  63  90 W3        29.94R
MANITOWISH WTR NOT AVBL
ARBOR VITAE    CLEAR     64  60  88 CALM      29.97R
EAGLE RIVER    CLEAR     59  58  97 CALM      29.97S
LAND O LAKES   CLEAR     62  58  90 CALM      29.99S
RHINELANDER    CLEAR     64  60  87 CALM      29.99S
PHILLIPS       CLOUDY    62  62 100 CALM      29.96S
ANTIGO         CLOUDY    63  60  89 CALM      30.00R
TOMAHAWK       CLEAR     56  55  95 CALM      29.98S FOG
MERRILL        CLEAR     57  57 100 NE3       29.98S
$$

WIZ013-073-251200-
NORTHEAST WISCONSIN

CITY           SKY/WX    TMP DP  RH WIND       PRES   REMARKS
IRON MOUNTAIN  CLOUDY    65  60  84 SE5       29.96S
MARINETTE      CLEAR     62  61  96 CALM      29.98R
OCONTO         PTCLDY    60  58  95 CALM      29.97R
$$

WIZ017-030-035>037-045-251200-
CENTRAL WISCONSIN

CITY           SKY/WX    TMP DP  RH WIND       PRES   REMARKS
MEDFORD        CLEAR     59  58  96 CALM      29.97S
WAUSAU         CLEAR     62  60  93 E5        29.96S
MOSINEE        CLEAR     63  59  88 CALM      29.99S
MARSHFIELD     CLEAR     61  57  87 S3        29.97R
WISC RAPIDS    MOCLDY    66  61  84 S3        29.98R
STEVENS POINT  MOCLDY    61  60  98 CALM      29.98S
WAUPACA        CLEAR     64  64  98 CALM      29.98S FOG
SHAWANO        CLEAR     67  61  83 CALM      29.97S
CLINTONVILLE   CLEAR     61  59  94 CALM      29.98R
WAUTOMA        CLEAR     59  58  96 CALM      29.99R
$$

WIZ038-039-048-051-251200-
FOX VALLEY

CITY           SKY/WX    TMP DP  RH WIND       PRES   REMARKS
NWS GREEN BAY  MOCLDY    67  62  84 S3        29.98R
APPLETON       PTCLDY    66  57  72 CALM      29.97S
OSHKOSH        CLEAR     66  61  84 S9        29.98R
FOND DU LAC    PTCLDY    66  59  78 S3        29.99R
$$

WIZ022-050-052-251200-
EAST CENTRAL WISCONSIN

CITY           SKY/WX    TMP DP  RH WIND       PRES   REMARKS
EPHRAIM        FAIR      66  60  79 S6        29.98R
WASHINGTON ISL FAIR      66  63  89 S5        29.97S
STURGEON BAY   PTCLDY    69  61  75 S9        29.98S
MANITOWOC      CLEAR     61  60  97 CALM      30.00R FOG
SHEBOYGAN      CLEAR     60  60 100 CALM      30.00R
$$

LMZ563-521-522-541>543-251200-
LAKESHORE

STATION/POSITION TIME  TEMP    WIND        PRES    VSBY  WAVE
                       AIR SEA DIR/SP/G                  HT/PER
                 (UTC) (F)     (DEG/KT/KT) (MB)    (MI)  (FT/S)
SHEBOYGAN LKSHOR 1100   68     210/  3/  3 1015.3R
KEWAUNEE LKSHORE 1042   63     180/  6/  6 1014.5R
NORTHPORT PIER   1040   68     150/  4/  6 1014.6S
N MID LAKE BUOY  1050   69 67  190/ 10/ 12 1015.7R         1/ 3
S GREEN BAY BUOY 1030   71 70  180/  8/ 10 1014.6R
SISTER BAY LKSHO 1019   71     160/ 11/ 14   N/A
MENOMINEE LKSHOR 1042   71     190/  5/  7 1014.4R
$$



USA.gov is the U.S. government's official web portal to all federal, state and local government web resources and services.